Time,TemperatureF,DewpointF,PressureIn,WindDirection,WindDirectionDegrees,WindSpeedMPH,WindSpeedGustMPH,Humidity,HourlyPrecipIn,Conditions,Clouds,dailyrainin,SoftwareType,DateUTC
2013-06-23 00:03:00,67.8,65.5,29.54,North,-999,-999.0,-999.0,92,0.00,,,0.13,meteohub,2013-06-23 05:03:00,
2013-06-23 00:08:00,67.8,65.5,29.54,North,-999,-999.0,-999.0,92,0.00,,,0.13,meteohub,2013-06-23 05:08:00,
2013-06-23 00:13:00,67.8,65.1,29.54,North,-999,-999.0,-999.0,91,0.00,,,0.13,meteohub,2013-06-23 05:13:00,
2013-06-23 00:18:00,67.6,64.9,29.48,North,-999,-999.0,-999.0,91,0.00,,,0.13,meteohub,2013-06-23 05:18:00,
2013-06-23 00:23:00,67.8,65.1,29.48,North,-999,-999.0,-999.0,91,0.00,,,0.13,meteohub,2013-06-23 05:23:00,
2013-06-23 00:28:00,68.0,64.9,29.48,North,-999,-999.0,-999.0,90,0.00,,,0.13,meteohub,2013-06-23 05:28:00,
2013-06-23 00:33:00,68.0,64.9,29.54,North,-999,-999.0,-999.0,90,0.00,,,0.13,meteohub,2013-06-23 05:33:00,
2013-06-23 00:39:00,68.0,64.9,29.54,North,-999,-999.0,-999.0,90,0.00,,,0.13,meteohub,2013-06-23 05:39:00,
2013-06-23 00:44:00,68.0,64.9,29.54,North,-999,-999.0,-999.0,90,0.00,,,0.13,meteohub,2013-06-23 05:44:00,
2013-06-23 00:49:00,67.8,65.1,29.51,North,-999,-999.0,-999.0,91,0.00,,,0.13,meteohub,2013-06-23 05:49:00,
2013-06-23 00:54:00,67.8,65.1,29.51,North,-999,-999.0,-999.0,91,0.00,,,0.13,meteohub,2013-06-23 05:54:00,
2013-06-23 00:59:00,67.8,65.1,29.51,North,-999,-999.0,-999.0,91,0.00,,,0.13,meteohub,2013-06-23 05:59:00,
2013-06-23 01:03:00,67.6,64.9,29.48,North,-999,-999.0,-999.0,91,0.00,,,0.13,meteohub,2013-06-23 06:03:00,
2013-06-23 01:08:00,67.6,64.9,29.48,North,-999,-999.0,-999.0,91,0.00,,,0.13,meteohub,2013-06-23 06:08:00,
2013-06-23 01:14:00,67.6,64.9,29.48,North,-999,-999.0,-999.0,91,0.00,,,0.13,meteohub,2013-06-23 06:14:00,
2013-06-23 01:19:00,67.5,64.8,29.51,North,-999,-999.0,-999.0,91,0.00,,,0.13,meteohub,2013-06-23 06:19:00,
2013-06-23 01:24:00,67.5,64.8,29.51,North,-999,-999.0,-999.0,91,0.00,,,0.13,meteohub,2013-06-23 06:24:00,
2013-06-23 01:29:00,67.3,64.6,29.51,North,-999,-999.0,-999.0,91,0.00,,,0.13,meteohub,2013-06-23 06:29:00,
2013-06-23 01:34:00,67.3,64.6,29.51,North,-999,-999.0,-999.0,91,0.00,,,0.13,meteohub,2013-06-23 06:34:00,
2013-06-23 01:39:00,67.3,64.6,29.51,North,-999,-999.0,-999.0,91,0.00,,,0.13,meteohub,2013-06-23 06:39:00,
2013-06-23 01:44:00,67.5,64.8,29.51,North,-999,-999.0,-999.0,91,0.00,,,0.13,meteohub,2013-06-23 06:44:00,
2013-06-23 01:49:00,67.5,65.1,29.51,North,-999,-999.0,-999.0,92,0.00,,,0.13,meteohub,2013-06-23 06:49:00,
2013-06-23 01:54:00,67.5,65.1,29.51,North,-999,-999.0,-999.0,92,0.00,,,0.13,meteohub,2013-06-23 06:54:00,
2013-06-23 01:59:00,67.5,65.1,29.51,North,-999,-999.0,-999.0,92,0.00,,,0.13,meteohub,2013-06-23 06:59:00,
2013-06-23 02:04:00,67.5,65.1,29.51,North,-999,-999.0,-999.0,92,0.00,,,0.13,meteohub,2013-06-23 07:04:00,
2013-06-23 02:09:00,67.3,64.9,29.51,North,-999,-999.0,-999.0,92,0.00,,,0.13,meteohub,2013-06-23 07:09:00,
2013-06-23 02:14:00,67.3,64.9,29.51,North,-999,-999.0,-999.0,92,0.00,,,0.13,meteohub,2013-06-23 07:14:00,
2013-06-23 02:19:00,67.1,64.8,29.51,North,-999,-999.0,-999.0,92,0.00,,,0.13,meteohub,2013-06-23 07:19:00,
2013-06-23 02:25:00,67.1,64.8,29.51,North,-999,-999.0,-999.0,92,0.00,,,0.13,meteohub,2013-06-23 07:25:00,
2013-06-23 02:30:00,67.1,64.8,29.48,North,-999,-999.0,-999.0,92,0.00,,,0.13,meteohub,2013-06-23 07:30:00,
2013-06-23 02:35:00,66.9,64.6,29.48,North,-999,-999.0,-999.0,92,0.00,,,0.13,meteohub,2013-06-23 07:35:00,
2013-06-23 02:40:00,66.9,64.6,29.48,North,-999,-999.0,-999.0,92,0.00,,,0.13,meteohub,2013-06-23 07:40:00,
2013-06-23 02:45:00,66.9,64.6,29.48,North,-999,-999.0,-999.0,92,0.00,,,0.13,meteohub,2013-06-23 07:45:00,
2013-06-23 02:50:00,66.9,64.6,29.48,North,-999,-999.0,-999.0,92,0.00,,,0.13,meteohub,2013-06-23 07:50:00,
2013-06-23 02:55:00,66.9,64.6,29.48,North,-999,-999.0,-999.0,92,0.00,,,0.13,meteohub,2013-06-23 07:55:00,
2013-06-23 03:00:00,66.9,64.8,29.48,North,-999,-999.0,-999.0,93,0.00,,,0.13,meteohub,2013-06-23 08:00:00,
2013-06-23 03:05:00,66.9,64.8,29.48,North,-999,-999.0,-999.0,93,0.00,,,0.13,meteohub,2013-06-23 08:05:00,
2013-06-23 03:10:00,66.9,64.8,29.48,North,-999,-999.0,-999.0,93,0.00,,,0.13,meteohub,2013-06-23 08:10:00,
2013-06-23 03:15:00,66.9,64.8,29.51,North,-999,-999.0,-999.0,93,0.00,,,0.13,meteohub,2013-06-23 08:15:00,
2013-06-23 03:20:00,67.1,64.9,29.51,North,-999,-999.0,-999.0,93,0.00,,,0.13,meteohub,2013-06-23 08:20:00,
2013-06-23 03:25:00,67.1,64.9,29.51,North,-999,-999.0,-999.0,93,0.00,,,0.13,meteohub,2013-06-23 08:25:00,
2013-06-23 03:30:00,67.1,64.9,29.51,North,-999,-999.0,-999.0,93,0.00,,,0.13,meteohub,2013-06-23 08:30:00,
2013-06-23 03:36:00,67.3,65.1,29.51,North,-999,-999.0,-999.0,93,0.00,,,0.13,meteohub,2013-06-23 08:36:00,
2013-06-23 03:41:00,67.3,65.1,29.51,North,-999,-999.0,-999.0,93,0.00,,,0.13,meteohub,2013-06-23 08:41:00,
2013-06-23 03:46:00,67.5,65.3,29.51,North,-999,-999.0,-999.0,93,0.00,,,0.13,meteohub,2013-06-23 08:46:00,
2013-06-23 03:51:00,67.5,65.3,29.51,North,-999,-999.0,-999.0,93,0.00,,,0.13,meteohub,2013-06-23 08:51:00,
2013-06-23 03:56:00,67.3,65.1,29.51,North,-999,-999.0,-999.0,93,0.00,,,0.13,meteohub,2013-06-23 08:56:00,
2013-06-23 04:01:00,67.3,65.1,29.48,North,-999,-999.0,-999.0,93,0.00,,,0.13,meteohub,2013-06-23 09:01:00,
2013-06-23 04:06:00,67.3,65.1,29.48,North,-999,-999.0,-999.0,93,0.00,,,0.13,meteohub,2013-06-23 09:06:00,
2013-06-23 04:11:00,67.3,65.1,29.48,North,-999,-999.0,-999.0,93,0.00,,,0.13,meteohub,2013-06-23 09:11:00,
2013-06-23 04:16:00,67.3,65.1,29.51,North,-999,-999.0,-999.0,93,0.00,,,0.13,meteohub,2013-06-23 09:16:00,
2013-06-23 04:21:00,67.3,65.5,29.51,North,-999,-999.0,-999.0,94,0.00,,,0.13,meteohub,2013-06-23 09:21:00,
2013-06-23 04:26:00,67.3,65.1,29.51,North,-999,-999.0,-999.0,93,0.00,,,0.13,meteohub,2013-06-23 09:26:00,
2013-06-23 04:31:00,67.3,65.1,29.51,North,-999,-999.0,-999.0,93,0.00,,,0.13,meteohub,2013-06-23 09:31:00,
2013-06-23 04:36:00,67.1,64.9,29.51,North,-999,-999.0,-999.0,93,0.00,,,0.13,meteohub,2013-06-23 09:36:00,
2013-06-23 04:41:00,67.1,64.9,29.51,North,-999,-999.0,-999.0,93,0.00,,,0.13,meteohub,2013-06-23 09:41:00,
2013-06-23 04:47:00,67.1,65.3,29.51,North,-999,-999.0,-999.0,94,0.00,,,0.13,meteohub,2013-06-23 09:47:00,
2013-06-23 04:52:00,67.1,65.3,29.51,North,-999,-999.0,-999.0,94,0.00,,,0.13,meteohub,2013-06-23 09:52:00,
2013-06-23 04:57:00,67.1,65.3,29.51,North,-999,-999.0,-999.0,94,0.00,,,0.13,meteohub,2013-06-23 09:57:00,
2013-06-23 05:02:00,66.9,65.1,29.51,North,-999,-999.0,-999.0,94,0.00,,,0.13,meteohub,2013-06-23 10:02:00,
2013-06-23 05:07:00,66.9,65.1,29.51,North,-999,-999.0,-999.0,94,0.00,,,0.13,meteohub,2013-06-23 10:07:00,
2013-06-23 05:12:00,66.9,65.1,29.51,North,-999,-999.0,-999.0,94,0.00,,,0.13,meteohub,2013-06-23 10:12:00,
2013-06-23 05:17:00,66.9,65.1,29.51,North,-999,-999.0,-999.0,94,0.00,,,0.13,meteohub,2013-06-23 10:17:00,
2013-06-23 05:22:00,67.1,65.3,29.51,North,-999,-999.0,-999.0,94,0.00,,,0.13,meteohub,2013-06-23 10:22:00,
2013-06-23 05:27:00,67.1,65.3,29.51,North,-999,-999.0,-999.0,94,0.00,,,0.13,meteohub,2013-06-23 10:27:00,
2013-06-23 05:32:00,67.1,65.3,29.51,North,-999,-999.0,-999.0,94,0.00,,,0.13,meteohub,2013-06-23 10:32:00,
2013-06-23 05:37:00,67.1,65.3,29.51,North,-999,-999.0,-999.0,94,0.00,,,0.13,meteohub,2013-06-23 10:37:00,
2013-06-23 05:42:00,67.1,65.3,29.51,North,-999,-999.0,-999.0,94,0.00,,,0.13,meteohub,2013-06-23 10:42:00,
2013-06-23 05:47:00,67.1,65.3,29.54,North,-999,-999.0,-999.0,94,0.00,,,0.13,meteohub,2013-06-23 10:47:00,
2013-06-23 05:52:00,67.3,65.5,29.54,North,-999,-999.0,-999.0,94,0.00,,,0.13,meteohub,2013-06-23 10:52:00,
2013-06-23 05:57:00,67.3,65.5,29.54,North,-999,-999.0,-999.0,94,0.00,,,0.13,meteohub,2013-06-23 10:57:00,
2013-06-23 06:02:00,67.3,65.5,29.51,North,-999,-999.0,-999.0,94,0.00,,,0.13,meteohub,2013-06-23 11:02:00,
2013-06-23 06:07:00,67.5,65.7,29.51,North,-999,-999.0,-999.0,94,0.00,,,0.13,meteohub,2013-06-23 11:07:00,
2013-06-23 06:12:00,67.5,65.7,29.51,North,-999,-999.0,-999.0,94,0.00,,,0.13,meteohub,2013-06-23 11:12:00,
2013-06-23 06:17:00,67.5,66.0,29.54,North,-999,-999.0,-999.0,95,0.00,,,0.13,meteohub,2013-06-23 11:17:00,
2013-06-23 06:22:00,67.6,66.2,29.54,North,-999,-999.0,-999.0,95,0.00,,,0.13,meteohub,2013-06-23 11:22:00,
2013-06-23 06:27:00,67.6,66.2,29.54,North,-999,-999.0,-999.0,95,0.00,,,0.13,meteohub,2013-06-23 11:27:00,
2013-06-23 06:32:00,67.6,66.2,29.54,North,-999,-999.0,-999.0,95,0.00,,,0.13,meteohub,2013-06-23 11:32:00,
2013-06-23 06:37:00,67.8,66.4,29.54,North,-999,-999.0,-999.0,95,0.00,,,0.13,meteohub,2013-06-23 11:37:00,
2013-06-23 06:42:00,68.0,66.2,29.54,North,-999,-999.0,-999.0,94,0.00,,,0.13,meteohub,2013-06-23 11:42:00,
2013-06-23 06:47:00,68.0,66.2,29.54,North,-999,-999.0,-999.0,94,0.00,,,0.13,meteohub,2013-06-23 11:47:00,
2013-06-23 06:52:00,68.2,66.4,29.54,North,-999,-999.0,-999.0,94,0.00,,,0.13,meteohub,2013-06-23 11:52:00,
2013-06-23 06:57:00,68.4,66.6,29.54,North,-999,-999.0,-999.0,94,0.00,,,0.13,meteohub,2013-06-23 11:57:00,
2013-06-23 07:02:00,68.5,67.1,29.54,North,-999,-999.0,-999.0,95,0.00,,,0.13,meteohub,2013-06-23 12:02:00,
2013-06-23 07:07:00,68.9,67.5,29.54,North,-999,-999.0,-999.0,95,0.00,,,0.13,meteohub,2013-06-23 12:07:00,
2013-06-23 07:12:00,69.6,68.2,29.54,North,-999,-999.0,-999.0,95,0.00,,,0.13,meteohub,2013-06-23 12:12:00,
2013-06-23 07:17:00,70.0,68.2,29.57,North,-999,-999.0,-999.0,94,0.00,,,0.13,meteohub,2013-06-23 12:17:00,
2013-06-23 07:22:00,70.3,68.5,29.57,North,-999,-999.0,-999.0,94,0.00,,,0.13,meteohub,2013-06-23 12:22:00,
2013-06-23 07:27:00,70.3,68.2,29.57,North,-999,-999.0,-999.0,93,0.00,,,0.13,meteohub,2013-06-23 12:27:00,
2013-06-23 07:32:00,70.3,68.2,29.57,North,-999,-999.0,-999.0,93,0.00,,,0.13,meteohub,2013-06-23 12:32:00,
2013-06-23 07:37:00,70.2,67.6,29.57,North,-999,-999.0,-999.0,92,0.00,,,0.13,meteohub,2013-06-23 12:37:00,
2013-06-23 07:42:00,70.2,67.6,29.57,North,-999,-999.0,-999.0,92,0.00,,,0.13,meteohub,2013-06-23 12:42:00,
2013-06-23 07:47:00,70.0,67.3,29.60,North,-999,-999.0,-999.0,91,0.00,,,0.13,meteohub,2013-06-23 12:47:00,
2013-06-23 07:52:00,70.2,67.5,29.60,North,-999,-999.0,-999.0,91,0.00,,,0.13,meteohub,2013-06-23 12:52:00,
2013-06-23 07:57:00,70.0,67.3,29.60,North,-999,-999.0,-999.0,91,0.00,,,0.13,meteohub,2013-06-23 12:57:00,
2013-06-23 08:02:00,70.0,67.3,29.57,North,-999,-999.0,-999.0,91,0.00,,,0.13,meteohub,2013-06-23 13:02:00,
2013-06-23 08:07:00,70.2,67.5,29.57,North,-999,-999.0,-999.0,91,0.00,,,0.13,meteohub,2013-06-23 13:07:00,
2013-06-23 08:12:00,70.2,67.5,29.57,North,-999,-999.0,-999.0,91,0.00,,,0.13,meteohub,2013-06-23 13:12:00,
2013-06-23 08:17:00,70.3,67.6,29.57,North,-999,-999.0,-999.0,91,0.00,,,0.13,meteohub,2013-06-23 13:17:00,
2013-06-23 08:22:00,70.3,67.6,29.57,North,-999,-999.0,-999.0,91,0.00,,,0.13,meteohub,2013-06-23 13:22:00,
2013-06-23 08:27:00,70.5,67.8,29.57,North,-999,-999.0,-999.0,91,0.00,,,0.13,meteohub,2013-06-23 13:27:00,
2013-06-23 08:32:00,70.7,68.0,29.57,North,-999,-999.0,-999.0,91,0.00,,,0.13,meteohub,2013-06-23 13:32:00,
2013-06-23 08:37:00,70.9,68.2,29.57,North,-999,-999.0,-999.0,91,0.00,,,0.13,meteohub,2013-06-23 13:37:00,
2013-06-23 08:42:00,71.4,68.7,29.57,North,-999,-999.0,-999.0,91,0.00,,,0.13,meteohub,2013-06-23 13:42:00,
2013-06-23 08:47:00,71.6,68.9,29.57,North,-999,-999.0,-999.0,91,0.00,,,0.13,meteohub,2013-06-23 13:47:00,
2013-06-23 08:52:00,72.0,68.9,29.57,North,-999,-999.0,-999.0,90,0.00,,,0.13,meteohub,2013-06-23 13:52:00,
2013-06-23 08:57:00,72.1,69.1,29.57,North,-999,-999.0,-999.0,90,0.00,,,0.13,meteohub,2013-06-23 13:57:00,
2013-06-23 09:02:00,72.1,69.1,29.57,North,-999,-999.0,-999.0,90,0.00,,,0.13,meteohub,2013-06-23 14:02:00,
2013-06-23 09:07:00,72.1,69.1,29.57,North,-999,-999.0,-999.0,90,0.00,,,0.13,meteohub,2013-06-23 14:07:00,
2013-06-23 09:12:00,72.3,69.3,29.57,North,-999,-999.0,-999.0,90,0.00,,,0.13,meteohub,2013-06-23 14:12:00,
2013-06-23 09:17:00,72.3,68.9,29.57,North,-999,-999.0,-999.0,89,0.00,,,0.13,meteohub,2013-06-23 14:17:00,
2013-06-23 09:22:00,72.3,68.9,29.57,North,-999,-999.0,-999.0,89,0.00,,,0.13,meteohub,2013-06-23 14:22:00,
2013-06-23 09:27:00,72.3,68.9,29.57,North,-999,-999.0,-999.0,89,0.00,,,0.13,meteohub,2013-06-23 14:27:00,
2013-06-23 09:33:00,72.3,69.3,29.54,North,-999,-999.0,-999.0,90,0.00,,,0.13,meteohub,2013-06-23 14:33:00,
2013-06-23 09:38:00,71.8,68.4,29.54,SW,225,9.0,-999.0,89,0.00,,,0.13,meteohub,2013-06-23 14:38:00,
2013-06-23 09:43:00,70.9,67.5,29.54,South,180,3.0,8.0,89,0.04,,,0.17,meteohub,2013-06-23 14:43:00,
2013-06-23 09:48:00,70.3,66.9,29.54,SSE,158,3.0,9.0,89,0.33,,,0.46,meteohub,2013-06-23 14:48:00,
2013-06-23 09:53:00,70.0,66.6,29.54,SSE,158,2.0,9.0,89,0.42,,,0.55,meteohub,2013-06-23 14:53:00,
2013-06-23 09:58:00,69.8,66.7,29.54,ESE,112,2.0,7.0,90,0.46,,,0.59,meteohub,2013-06-23 14:58:00,
2013-06-23 10:04:00,69.4,66.4,29.57,South,180,5.0,7.0,90,0.62,,,0.75,meteohub,2013-06-23 15:04:00,
2013-06-23 10:09:00,69.1,66.4,29.57,South,180,6.0,7.0,91,0.75,,,0.88,meteohub,2013-06-23 15:09:00,
2013-06-23 10:14:00,69.1,66.4,29.57,South,180,3.0,5.0,91,0.83,,,0.96,meteohub,2013-06-23 15:14:00,
2013-06-23 10:19:00,69.3,66.9,29.57,SW,225,6.0,7.0,92,0.87,,,1.00,meteohub,2013-06-23 15:19:00,
2013-06-23 10:24:00,69.3,67.1,29.57,SSW,202,2.0,7.0,93,0.91,,,1.04,meteohub,2013-06-23 15:24:00,
2013-06-23 10:29:00,69.3,67.1,29.57,South,180,2.0,7.0,93,1.04,,,1.17,meteohub,2013-06-23 15:29:00,
2013-06-23 10:35:00,69.3,67.5,29.57,South,180,2.0,7.0,94,1.12,,,1.25,meteohub,2013-06-23 15:35:00,
2013-06-23 10:40:00,69.4,67.6,29.57,South,180,2.0,5.0,94,1.17,,,1.34,meteohub,2013-06-23 15:40:00,
2013-06-23 10:45:00,69.6,67.8,29.54,South,180,2.0,3.0,94,0.84,,,1.34,meteohub,2013-06-23 15:45:00,
2013-06-23 10:50:00,69.6,67.8,29.54,South,180,2.0,2.0,94,0.79,,,1.34,meteohub,2013-06-23 15:50:00,
2013-06-23 10:56:00,69.4,67.6,29.54,North,-999,-999.0,2.0,94,0.71,,,1.34,meteohub,2013-06-23 15:56:00,
2013-06-23 11:01:00,69.3,67.5,29.57,North,-999,-999.0,2.0,94,0.54,,,1.34,meteohub,2013-06-23 16:01:00,
2013-06-23 11:06:00,69.1,67.3,29.57,North,-999,-999.0,-999.0,94,0.42,,,1.34,meteohub,2013-06-23 16:06:00,
2013-06-23 11:11:00,68.9,67.1,29.57,North,-999,-999.0,-999.0,94,0.38,,,1.34,meteohub,2013-06-23 16:11:00,
2013-06-23 11:16:00,68.9,67.5,29.57,North,-999,-999.0,-999.0,95,0.34,,,1.34,meteohub,2013-06-23 16:16:00,
2013-06-23 11:21:00,69.1,67.6,29.57,SE,135,2.0,2.0,95,0.21,,,1.34,meteohub,2013-06-23 16:21:00,
2013-06-23 11:26:00,68.9,67.5,29.57,NE,45,2.0,4.0,95,0.09,,,1.34,meteohub,2013-06-23 16:26:00,
2013-06-23 11:32:00,69.1,67.6,29.57,NE,45,3.0,4.0,95,0.00,,,1.34,meteohub,2013-06-23 16:32:00,
2013-06-23 11:37:00,69.3,68.0,29.57,ENE,68,2.0,4.0,96,0.00,,,1.34,meteohub,2013-06-23 16:37:00,
2013-06-23 11:42:00,69.3,68.0,29.57,ENE,68,1.0,3.0,96,0.00,,,1.34,meteohub,2013-06-23 16:42:00,
2013-06-23 11:47:00,69.4,68.2,29.57,ENE,68,1.0,3.0,96,0.00,,,1.34,meteohub,2013-06-23 16:47:00,
2013-06-23 11:52:00,69.4,68.2,29.57,North,0,1.0,3.0,96,0.00,,,1.34,meteohub,2013-06-23 16:52:00,
2013-06-23 11:57:00,69.6,68.4,29.57,NNW,338,2.0,2.0,96,0.00,,,1.34,meteohub,2013-06-23 16:57:00,
2013-06-23 11:58:00,69.6,68.4,29.57,NNW,338,2.0,2.0,96,0.00,,,1.34,meteohub,2013-06-23 16:58:00,
2013-06-23 12:00:00,69.6,68.4,29.57,NE,45,2.0,2.0,96,0.00,,,1.34,meteohub,2013-06-23 17:00:00,
2013-06-23 12:04:00,69.8,68.5,29.57,NNE,22,2.0,2.0,96,0.00,,,1.34,meteohub,2013-06-23 17:04:00,
2013-06-23 12:09:00,69.8,68.5,29.57,NE,45,3.0,3.0,96,0.00,,,1.34,meteohub,2013-06-23 17:09:00,
2013-06-23 12:14:00,69.8,68.5,29.57,NNE,22,3.0,3.0,96,0.00,,,1.34,meteohub,2013-06-23 17:14:00,
2013-06-23 12:19:00,69.6,68.4,29.57,NNE,22,3.0,3.0,96,0.00,,,1.34,meteohub,2013-06-23 17:19:00,
2013-06-23 12:24:00,69.6,68.4,29.57,NNE,22,3.0,3.0,96,0.00,,,1.34,meteohub,2013-06-23 17:24:00,
2013-06-23 12:29:00,69.6,68.4,29.57,North,-999,-999.0,3.0,96,0.00,,,1.34,meteohub,2013-06-23 17:29:00,
2013-06-23 12:34:00,69.6,68.4,29.57,North,-999,-999.0,3.0,96,0.00,,,1.34,meteohub,2013-06-23 17:34:00,
2013-06-23 12:39:00,69.8,68.5,29.57,North,-999,-999.0,3.0,96,0.00,,,1.34,meteohub,2013-06-23 17:39:00,
2013-06-23 12:45:00,69.6,68.7,29.60,NNE,22,4.0,-999.0,97,0.00,,,1.34,meteohub,2013-06-23 17:45:00,
2013-06-23 12:50:00,69.6,68.7,29.60,ENE,68,2.0,6.0,97,0.00,,,1.34,meteohub,2013-06-23 17:50:00,
2013-06-23 12:55:00,69.8,68.5,29.60,NE,45,2.0,6.0,96,0.00,,,1.34,meteohub,2013-06-23 17:55:00,
2013-06-23 13:00:00,69.8,68.5,29.60,East,90,0.0,6.0,96,0.00,,,1.34,meteohub,2013-06-23 18:00:00,
2013-06-23 13:05:00,69.8,68.5,29.60,ENE,68,0.0,4.0,96,0.00,,,1.34,meteohub,2013-06-23 18:05:00,
2013-06-23 13:10:00,70.0,69.1,29.60,NE,45,5.0,5.0,97,0.00,,,1.34,meteohub,2013-06-23 18:10:00,
2013-06-23 13:15:00,69.6,68.7,29.60,East,90,4.0,5.0,97,0.03,,,1.37,meteohub,2013-06-23 18:15:00,
2013-06-23 13:20:00,69.6,68.7,29.60,East,90,5.0,5.0,97,0.03,,,1.37,meteohub,2013-06-23 18:20:00,
2013-06-23 13:25:00,69.3,68.0,29.60,NE,45,4.0,6.0,96,0.03,,,1.37,meteohub,2013-06-23 18:25:00,
2013-06-23 13:30:00,69.3,68.0,29.60,NE,45,4.0,6.0,96,0.03,,,1.37,meteohub,2013-06-23 18:30:00,
2013-06-23 13:35:00,69.1,68.2,29.60,East,90,7.0,8.0,97,0.03,,,1.37,meteohub,2013-06-23 18:35:00,
2013-06-23 13:40:00,68.9,67.6,29.60,NNE,22,5.0,8.0,96,0.03,,,1.37,meteohub,2013-06-23 18:40:00,
2013-06-23 13:46:00,68.9,67.6,29.60,ENE,68,5.0,9.0,96,0.08,,,1.42,meteohub,2013-06-23 18:46:00,
2013-06-23 13:51:00,68.9,67.6,29.60,East,90,4.0,9.0,96,0.08,,,1.42,meteohub,2013-06-23 18:51:00,
2013-06-23 13:56:00,69.1,67.8,29.60,East,90,3.0,9.0,96,0.08,,,1.42,meteohub,2013-06-23 18:56:00,
2013-06-23 14:01:00,68.9,67.6,29.60,ENE,68,4.0,8.0,96,0.08,,,1.42,meteohub,2013-06-23 19:01:00,
2013-06-23 14:06:00,69.1,67.8,29.60,East,90,3.0,8.0,96,0.08,,,1.42,meteohub,2013-06-23 19:06:00,
2013-06-23 14:11:00,69.3,68.4,29.60,East,90,5.0,8.0,97,0.08,,,1.42,meteohub,2013-06-23 19:11:00,
2013-06-23 14:16:00,69.1,68.2,29.60,NE,45,6.0,8.0,97,0.05,,,1.42,meteohub,2013-06-23 19:16:00,
2013-06-23 14:21:00,69.1,68.2,29.60,NE,45,5.0,8.0,97,0.05,,,1.42,meteohub,2013-06-23 19:21:00,
2013-06-23 14:26:00,69.3,68.4,29.60,NNE,22,5.0,8.0,97,0.05,,,1.42,meteohub,2013-06-23 19:26:00,
2013-06-23 14:32:00,69.3,68.4,29.57,NNE,22,4.0,8.0,97,0.05,,,1.42,meteohub,2013-06-23 19:32:00,
2013-06-23 14:37:00,69.4,68.5,29.57,East,90,3.0,8.0,97,0.05,,,1.42,meteohub,2013-06-23 19:37:00,
2013-06-23 14:42:00,69.8,68.9,29.57,NE,45,3.0,9.0,97,0.05,,,1.42,meteohub,2013-06-23 19:42:00,
2013-06-23 14:47:00,70.0,69.1,29.57,South,180,1.0,9.0,97,0.00,,,1.42,meteohub,2013-06-23 19:47:00,
2013-06-23 14:52:00,70.2,69.3,29.57,ENE,68,4.0,9.0,97,0.00,,,1.42,meteohub,2013-06-23 19:52:00,
2013-06-23 14:57:00,70.5,69.6,29.57,ENE,68,3.0,7.0,97,0.00,,,1.42,meteohub,2013-06-23 19:57:00,
2013-06-23 15:02:00,70.5,69.6,29.57,East,90,2.0,7.0,97,0.00,,,1.42,meteohub,2013-06-23 20:02:00,
2013-06-23 15:07:00,70.5,69.6,29.57,ESE,112,2.0,7.0,97,0.00,,,1.42,meteohub,2013-06-23 20:07:00,
2013-06-23 15:12:00,70.7,69.8,29.57,East,90,1.0,6.0,97,0.00,,,1.42,meteohub,2013-06-23 20:12:00,
2013-06-23 15:17:00,70.9,70.0,29.57,East,90,2.0,6.0,97,0.00,,,1.42,meteohub,2013-06-23 20:17:00,
2013-06-23 15:22:00,71.1,70.2,29.57,ENE,68,2.0,6.0,97,0.00,,,1.42,meteohub,2013-06-23 20:22:00,
2013-06-23 15:27:00,71.1,70.2,29.57,East,90,4.0,4.0,97,0.00,,,1.42,meteohub,2013-06-23 20:27:00,
2013-06-23 15:32:00,71.4,70.5,29.54,NE,45,4.0,4.0,97,0.00,,,1.42,meteohub,2013-06-23 20:32:00,
2013-06-23 15:37:00,71.8,70.5,29.54,SE,135,2.0,4.0,96,0.00,,,1.42,meteohub,2013-06-23 20:37:00,
2013-06-23 15:42:00,72.1,70.9,29.54,East,90,4.0,4.0,96,0.00,,,1.42,meteohub,2013-06-23 20:42:00,
2013-06-23 15:47:00,72.5,71.2,29.54,ENE,68,4.0,5.0,96,0.00,,,1.42,meteohub,2013-06-23 20:47:00,
2013-06-23 15:52:00,72.7,71.4,29.54,East,90,2.0,5.0,96,0.00,,,1.42,meteohub,2013-06-23 20:52:00,
2013-06-23 15:57:00,73.2,72.0,29.54,East,90,4.0,6.0,96,0.00,,,1.42,meteohub,2013-06-23 20:57:00,
2013-06-23 16:02:00,73.9,72.5,29.51,NE,45,4.0,6.0,95,0.00,,,1.42,meteohub,2013-06-23 21:02:00,
2013-06-23 16:07:00,74.3,72.9,29.51,East,90,2.0,6.0,95,0.00,,,1.42,meteohub,2013-06-23 21:07:00,
2013-06-23 16:12:00,74.8,72.7,29.51,ENE,68,5.0,6.0,93,0.00,,,1.42,meteohub,2013-06-23 21:12:00,
2013-06-23 16:17:00,75.2,72.3,29.51,NNE,22,3.0,7.0,91,0.00,,,1.42,meteohub,2013-06-23 21:17:00,
2013-06-23 16:22:00,75.7,72.9,29.51,ENE,68,2.0,7.0,91,0.00,,,1.42,meteohub,2013-06-23 21:22:00,
2013-06-23 16:27:00,75.7,72.7,29.51,WSW,248,2.0,7.0,90,0.00,,,1.42,meteohub,2013-06-23 21:27:00,
2013-06-23 16:32:00,75.7,72.3,29.51,SE,135,3.0,3.0,89,0.00,,,1.42,meteohub,2013-06-23 21:32:00,
2013-06-23 16:37:00,76.1,72.7,29.51,South,180,2.0,3.0,89,0.00,,,1.42,meteohub,2013-06-23 21:37:00,
2013-06-23 16:42:00,76.3,72.5,29.51,West,270,2.0,5.0,88,0.00,,,1.42,meteohub,2013-06-23 21:42:00,
2013-06-23 16:47:00,76.3,72.5,29.51,SW,225,2.0,6.0,88,0.00,,,1.42,meteohub,2013-06-23 21:47:00,
2013-06-23 16:52:00,76.3,72.1,29.51,East,90,1.0,6.0,87,0.00,,,1.42,meteohub,2013-06-23 21:52:00,
2013-06-23 16:57:00,76.1,71.2,29.51,NNE,22,4.0,6.0,85,0.00,,,1.42,meteohub,2013-06-23 21:57:00,
2013-06-23 17:02:00,76.1,71.2,29.48,NNE,22,4.0,4.0,85,0.00,,,1.42,meteohub,2013-06-23 22:02:00,
2013-06-23 17:07:00,76.1,71.2,29.48,NNE,22,4.0,4.0,85,0.00,,,1.42,meteohub,2013-06-23 22:07:00,
2013-06-23 17:12:00,76.3,71.4,29.48,NW,315,3.0,4.0,85,0.00,,,1.42,meteohub,2013-06-23 22:12:00,
2013-06-23 17:18:00,76.5,71.6,29.51,NW,315,3.0,4.0,85,0.00,,,1.42,meteohub,2013-06-23 22:18:00,
2013-06-23 17:23:00,76.6,71.8,29.51,NW,315,3.0,4.0,85,0.00,,,1.42,meteohub,2013-06-23 22:23:00,
2013-06-23 17:28:00,76.6,71.4,29.51,NW,315,3.0,3.0,84,0.00,,,1.42,meteohub,2013-06-23 22:28:00,
2013-06-23 17:33:00,76.5,70.5,29.51,SSE,158,6.0,6.0,82,0.00,,,1.42,meteohub,2013-06-23 22:33:00,
2013-06-23 17:38:00,76.3,69.3,29.51,SSE,158,6.0,6.0,79,0.00,,,1.42,meteohub,2013-06-23 22:38:00,
2013-06-23 17:43:00,75.9,68.5,29.51,SE,135,1.0,6.0,78,0.00,,,1.42,meteohub,2013-06-23 22:43:00,
2013-06-23 17:48:00,75.7,68.4,29.51,NE,45,1.0,6.0,78,0.00,,,1.42,meteohub,2013-06-23 22:48:00,
2013-06-23 17:53:00,75.7,68.4,29.51,NE,45,1.0,6.0,78,0.00,,,1.42,meteohub,2013-06-23 22:53:00,
2013-06-23 17:58:00,75.7,68.4,29.51,East,90,2.0,2.0,78,0.00,,,1.42,meteohub,2013-06-23 22:58:00,
2013-06-23 18:03:00,75.9,68.2,29.51,East,90,2.0,2.0,77,0.00,,,1.42,meteohub,2013-06-23 23:03:00,
2013-06-23 18:08:00,76.1,68.4,29.51,East,90,2.0,2.0,77,0.00,,,1.42,meteohub,2013-06-23 23:08:00,
2013-06-23 18:13:00,76.3,68.9,29.51,North,-999,-999.0,2.0,78,0.00,,,1.42,meteohub,2013-06-23 23:13:00,
2013-06-23 18:19:00,75.9,68.2,29.48,South,180,2.0,2.0,77,0.00,,,1.42,meteohub,2013-06-23 23:19:00,
2013-06-23 18:24:00,75.7,68.0,29.48,South,180,2.0,2.0,77,0.00,,,1.42,meteohub,2013-06-23 23:24:00,
2013-06-23 18:29:00,75.6,67.8,29.48,South,180,2.0,2.0,77,0.00,,,1.42,meteohub,2013-06-23 23:29:00,
2013-06-23 18:34:00,75.4,67.3,29.51,South,180,2.0,2.0,76,0.00,,,1.42,meteohub,2013-06-23 23:34:00,
2013-06-23 18:39:00,75.2,67.1,29.51,North,-999,-999.0,2.0,76,0.00,,,1.42,meteohub,2013-06-23 23:39:00,
2013-06-23 18:44:00,75.2,67.1,29.51,North,-999,-999.0,2.0,76,0.00,,,1.42,meteohub,2013-06-23 23:44:00,
2013-06-23 18:49:00,75.0,67.3,29.51,North,-999,-999.0,2.0,77,0.00,,,1.42,meteohub,2013-06-23 23:49:00,
2013-06-23 18:54:00,74.7,66.9,29.51,North,-999,-999.0,-999.0,77,0.00,,,1.42,meteohub,2013-06-23 23:54:00,
2013-06-23 18:59:00,74.5,66.7,29.51,North,-999,-999.0,-999.0,77,0.00,,,1.42,meteohub,2013-06-23 23:59:00,
2013-06-23 19:04:00,74.5,66.7,29.51,North,-999,-999.0,-999.0,77,0.00,,,1.42,meteohub,2013-06-24 00:04:00,
2013-06-23 19:10:00,74.3,66.6,29.51,North,-999,-999.0,-999.0,77,0.00,,,0.00,meteohub,2013-06-24 00:10:00,
2013-06-23 19:15:00,74.1,66.7,29.48,North,-999,-999.0,-999.0,78,0.00,,,0.00,meteohub,2013-06-24 00:15:00,
2013-06-23 19:20:00,73.9,66.2,29.48,North,-999,-999.0,-999.0,77,0.00,,,0.00,meteohub,2013-06-24 00:20:00,
2013-06-23 19:25:00,73.9,66.6,29.48,North,-999,-999.0,-999.0,78,0.00,,,0.00,meteohub,2013-06-24 00:25:00,
2013-06-23 19:30:00,73.9,66.6,29.51,North,-999,-999.0,-999.0,78,0.00,,,0.00,meteohub,2013-06-24 00:30:00,
2013-06-23 19:35:00,73.9,65.5,29.51,North,-999,-999.0,-999.0,75,0.00,,,0.00,meteohub,2013-06-24 00:35:00,
2013-06-23 19:37:00,74.3,65.5,29.51,NW,315,6.0,-999.0,74,0.00,,,0.00,meteohub,2013-06-24 00:37:00,
2013-06-23 19:42:00,74.5,62.8,29.51,WNW,292,10.0,10.0,67,0.00,,,0.00,meteohub,2013-06-24 00:42:00,
2013-06-23 19:47:00,74.1,61.5,29.57,NW,315,9.0,18.0,65,0.00,,,0.00,meteohub,2013-06-24 00:47:00,
2013-06-23 19:52:00,73.9,61.0,29.57,NW,315,9.0,18.0,64,0.00,,,0.00,meteohub,2013-06-24 00:52:00,
2013-06-23 19:57:00,73.2,60.8,29.57,NW,315,13.0,18.0,65,0.00,,,0.00,meteohub,2013-06-24 00:57:00,
2013-06-23 20:02:00,72.7,60.3,29.57,NW,315,13.0,13.0,65,0.00,,,0.00,meteohub,2013-06-24 01:02:00,
2013-06-23 20:07:00,71.8,60.3,29.57,NW,315,13.0,13.0,67,0.00,,,0.00,meteohub,2013-06-24 01:07:00,
2013-06-23 20:12:00,71.4,61.2,29.57,NW,315,13.0,13.0,70,0.00,,,0.00,meteohub,2013-06-24 01:12:00,
2013-06-23 20:17:00,70.7,60.8,29.57,North,-999,-999.0,13.0,71,0.00,,,0.00,meteohub,2013-06-24 01:17:00,
2013-06-23 20:22:00,70.0,62.4,29.57,West,270,5.0,13.0,77,0.00,,,0.00,meteohub,2013-06-24 01:22:00,
2013-06-23 20:27:00,69.1,61.2,29.57,NW,315,4.0,7.0,76,0.04,,,0.04,meteohub,2013-06-24 01:27:00,
2013-06-23 20:32:00,69.1,61.9,29.57,SW,225,3.0,7.0,78,0.08,,,0.08,meteohub,2013-06-24 01:32:00,
2013-06-23 20:37:00,68.7,62.6,29.57,West,270,4.0,7.0,81,0.08,,,0.08,meteohub,2013-06-24 01:37:00,
2013-06-23 20:42:00,68.5,63.1,29.57,WSW,248,3.0,5.0,83,0.08,,,0.08,meteohub,2013-06-24 01:42:00,
2013-06-23 20:47:00,68.4,63.7,29.57,WSW,248,2.0,5.0,85,0.12,,,0.12,meteohub,2013-06-24 01:47:00,
2013-06-23 20:52:00,68.0,63.0,29.57,WNW,292,1.0,5.0,84,0.12,,,0.12,meteohub,2013-06-24 01:52:00,
2013-06-23 20:57:00,68.2,63.5,29.57,South,180,5.0,5.0,85,0.16,,,0.16,meteohub,2013-06-24 01:57:00,
2013-06-23 21:02:00,68.2,63.9,29.54,SSW,202,6.0,6.0,86,0.16,,,0.16,meteohub,2013-06-24 02:02:00,
2013-06-23 21:07:00,68.0,64.0,29.54,South,180,4.0,9.0,87,0.16,,,0.16,meteohub,2013-06-24 02:07:00,
2013-06-23 21:12:00,68.0,64.0,29.54,SSE,158,2.0,9.0,87,0.16,,,0.16,meteohub,2013-06-24 02:12:00,
2013-06-23 21:17:00,68.0,64.0,29.57,South,180,3.0,9.0,87,0.16,,,0.16,meteohub,2013-06-24 02:17:00,
2013-06-23 21:22:00,68.0,64.4,29.57,South,180,3.0,5.0,88,0.17,,,0.21,meteohub,2013-06-24 02:22:00,
2013-06-23 21:27:00,67.8,64.4,29.57,SSW,202,4.0,5.0,89,0.17,,,0.21,meteohub,2013-06-24 02:27:00,
2013-06-23 21:32:00,67.8,64.8,29.57,SSW,202,4.0,4.0,90,0.13,,,0.21,meteohub,2013-06-24 02:32:00,
2013-06-23 21:37:00,67.8,64.8,29.57,SW,225,4.0,4.0,90,0.17,,,0.25,meteohub,2013-06-24 02:37:00,
2013-06-23 21:42:00,67.8,64.8,29.57,SW,225,2.0,4.0,90,0.17,,,0.25,meteohub,2013-06-24 02:42:00,
2013-06-23 21:47:00,67.8,65.1,29.51,SSW,202,1.0,4.0,91,0.17,,,0.29,meteohub,2013-06-24 02:47:00,
2013-06-23 21:52:00,67.8,65.1,29.51,SSW,202,3.0,4.0,91,0.13,,,0.29,meteohub,2013-06-24 02:52:00,
2013-06-23 21:57:00,67.8,65.1,29.51,SSW,202,3.0,4.0,91,0.13,,,0.29,meteohub,2013-06-24 02:57:00,
2013-06-23 22:02:00,67.8,65.1,29.51,SSW,202,2.0,4.0,91,0.13,,,0.29,meteohub,2013-06-24 03:02:00,
2013-06-23 22:07:00,67.6,64.9,29.51,South,180,2.0,5.0,91,0.17,,,0.33,meteohub,2013-06-24 03:07:00,
2013-06-23 22:12:00,67.6,65.3,29.51,South,180,4.0,5.0,92,0.17,,,0.33,meteohub,2013-06-24 03:12:00,
2013-06-23 22:17:00,67.6,65.3,29.51,SSW,202,0.0,4.0,92,0.12,,,0.33,meteohub,2013-06-24 03:17:00,
2013-06-23 22:22:00,67.6,65.3,29.51,SSW,202,0.0,4.0,92,0.12,,,0.33,meteohub,2013-06-24 03:22:00,
2013-06-23 22:27:00,67.6,65.3,29.51,NNE,22,1.0,4.0,92,0.12,,,0.33,meteohub,2013-06-24 03:27:00,
2013-06-23 22:32:00,67.6,65.3,29.54,SSW,202,1.0,3.0,92,0.08,,,0.33,meteohub,2013-06-24 03:32:00,
2013-06-23 22:37:00,67.5,65.1,29.54,SW,225,0.0,2.0,92,0.08,,,0.33,meteohub,2013-06-24 03:37:00,
2013-06-23 22:42:00,67.5,65.1,29.54,NE,45,2.0,2.0,92,0.08,,,0.33,meteohub,2013-06-24 03:42:00,
2013-06-23 22:47:00,67.5,65.1,29.51,NE,45,0.0,2.0,92,0.04,,,0.33,meteohub,2013-06-24 03:47:00,
2013-06-23 22:52:00,67.5,65.3,29.51,West,270,2.0,2.0,93,0.04,,,0.33,meteohub,2013-06-24 03:52:00,
2013-06-23 22:57:00,67.6,65.5,29.51,SSW,202,0.0,2.0,93,0.04,,,0.33,meteohub,2013-06-24 03:57:00,
2013-06-23 23:01:00,67.5,65.3,29.51,South,180,2.0,2.0,93,0.04,,,0.33,meteohub,2013-06-24 04:01:00,
2013-06-23 23:02:00,67.5,65.3,29.51,SSW,202,2.0,2.0,93,0.04,,,0.33,meteohub,2013-06-24 04:02:00,
2013-06-23 23:03:00,67.5,65.3,29.51,SSW,202,2.0,2.0,93,0.04,,,0.33,meteohub,2013-06-24 04:03:00,
2013-06-23 23:08:00,67.6,65.5,29.51,SW,225,0.0,2.0,93,0.00,,,0.33,meteohub,2013-06-24 04:08:00,
2013-06-23 23:13:00,67.5,65.3,29.51,SSW,202,4.0,4.0,93,0.00,,,0.33,meteohub,2013-06-24 04:13:00,
2013-06-23 23:18:00,67.5,65.3,29.54,SSW,202,2.0,4.0,93,0.00,,,0.33,meteohub,2013-06-24 04:18:00,
2013-06-23 23:23:00,67.5,65.3,29.54,West,270,3.0,4.0,93,0.00,,,0.33,meteohub,2013-06-24 04:23:00,
2013-06-23 23:28:00,67.5,65.7,29.54,SSE,158,3.0,4.0,94,0.00,,,0.33,meteohub,2013-06-24 04:28:00,
2013-06-23 23:33:00,67.5,65.7,29.51,SW,225,2.0,4.0,94,0.00,,,0.33,meteohub,2013-06-24 04:33:00,
2013-06-23 23:38:00,67.5,65.7,29.51,WNW,292,1.0,3.0,94,0.00,,,0.33,meteohub,2013-06-24 04:38:00,
2013-06-23 23:43:00,67.5,65.7,29.51,SSW,202,1.0,3.0,94,0.00,,,0.33,meteohub,2013-06-24 04:43:00,
2013-06-23 23:48:00,67.6,65.8,29.54,SSW,202,0.0,3.0,94,0.00,,,0.33,meteohub,2013-06-24 04:48:00,
2013-06-23 23:53:00,67.6,66.2,29.54,South,180,2.0,3.0,95,0.00,,,0.33,meteohub,2013-06-24 04:53:00,
2013-06-23 23:58:00,67.6,66.2,29.54,South,180,2.0,3.0,95,0.00,,,0.33,meteohub,2013-06-24 04:58:00,